Location: ?????????
(41.2393°N, 22.9479°E)
Time: 21:46:01
(UTC+00:00)

Cosmos 1428 Rocket - Pass Details

Date: 17 November 2025
Orbit: 948 x 986 km, 82.9° (Epoch: 10 December)

Event Time Altitude Azimuth Distance (km) Brightness Sun altitude
Rises 16:48:32 0° 355° (N) 3,683 7.5 -19.0°
Reaches altitude 10° 16:51:04 10° 358° (N) 2,736 6.8 -19.5°
Maximum altitude 16:57:19 67° 81° (E) 1,060 4.4 -20.6°
Drops below altitude 10° 17:03:34 10° 164° (SSE) 2,734 6.7 -21.8°
Sets 17:06:06 0° 166° (SSE) 3,679 7.5 -22.3°
